F2092 Weather Reports


Display with metric or nautical units.
time (UTC)temp
F
wind
direction
speed
MPH
gust
MPH
rain 1hr
in
rain 24hr
in
rain mn
in
humidity
%
barometer
mb
20260504205403 78 245 3.0 12.0 0.00 0.00 0.00 37 1009.8
20260504204503 78 236 4.0 11.0 0.00 0.00 0.00 39 1009.9
20260504203603 77 235 5.0 12.0 0.00 0.00 0.00 39 1009.8
20260504202703 77 232 5.0 11.0 0.00 0.00 0.00 40 1009.7
20260504201803 76 234 5.0 14.0 0.00 0.00 0.00 39 1010.0
20260504201112 76 227 5.0 12.0 0.00 0.00 0.00 38 1009.9
20260504200003 76 237 5.0 12.0 0.00 0.00 0.00 41 1010.0
20260504195403 76 233 5.0 12.0 0.00 0.00 0.00 39 1010.1
20260504194503 75 238 4.0 13.0 0.00 0.00 0.00 40 1010.3
20260504193603 76 233 3.0 12.0 0.00 0.00 0.00 40 1010.3
20260504192703 75 237 4.0 12.0 0.00 0.00 0.00 42 1010.4
20260504191803 75 233 4.0 13.0 0.00 0.00 0.00 42 1010.4
20260504190903 74 237 4.0 10.0 0.00 0.00 0.00 42 1010.7
20260504190003 75 227 4.0 17.0 0.00 0.00 0.00 43 1010.9
20260504185403 74 227 4.0 11.0 0.00 0.00 0.00 43 1010.9
20260504184503 74 236 4.0 12.0 0.00 0.00 0.00 43 1011.2
20260504183816 74 239 4.0 11.0 0.00 0.00 0.00 45 1011.0
20260504182703 74 243 4.0 14.0 0.00 0.00 0.00 41 1011.2
20260504181803 74 244 4.0 12.0 0.00 0.00 0.00 43 1011.3
20260504180903 73 232 5.0 14.0 0.00 0.00 0.00 43 1011.3
20260504180003 74 246 2.0 11.0 0.00 0.00 0.00 42 1011.4
20260504175612 74 254 3.0 14.0 0.00 0.00 0.00 45 1011.3
20260504174503 72 242 4.0 13.0 0.00 0.00 0.00 44 1011.5
20260504173603 72 241 4.0 12.0 0.00 0.00 0.00 43 1011.8
20260504172703 72 241 4.0 11.0 0.00 0.00 0.00 45 1011.6
20260504171803 72 244 6.0 16.0 0.00 0.00 0.00 44 1011.7
20260504170903 72 242 5.0 13.0 0.00 0.00 0.00 45 1011.9
20260504170216 71 234 6.0 13.0 0.00 0.00 0.00 42 1012.2
20260504150903 69 224 4.0 9.0 0.00 0.00 0.00 49 1013.3
20260504140903 66 238 4.0 18.0 0.00 0.00 0.00 54 1013.8
20260504081803 50 232 2.0 7.0 0.00 0.00 0.00 63 1014.3
20260504080903 50 229 2.0 7.0 0.00 0.00 0.00 62 1014.4
20260504050003 51 240 2.0 7.0 0.00 0.00 0.00 59 1013.7
20260504045403 51 230 2.0 7.0 0.00 0.00 0.00 59 1013.7
20260504044503 51 233 2.0 6.0 0.00 0.00 0.00 59 1013.7
20260504043603 51 226 2.0 6.0 0.00 0.00 0.00 60 1013.7
20260504042703 51 232 1.0 7.0 0.00 0.00 0.00 60 1013.6
20260504041803 51 240 2.0 6.0 0.00 0.00 0.00 59 1013.6
20260504040903 51 235 2.0 7.0 0.00 0.00 0.00 58 1013.5
20260504040004 52 233 2.0 4.0 0.00 0.00 0.00 58 1013.3
20260504035403 52 233 2.0 5.0 0.00 0.00 0.00 58 1013.3
20260504034713 52 231 2.0 5.0 0.00 0.00 0.00 58 1013.3
20260504033603 52 233 2.0 5.0 0.00 0.00 0.00 57 1013.3
20260504032703 52 232 2.0 8.0 0.00 0.00 0.00 58 1013.1
20260504031803 51 229 2.0 5.0 0.00 0.00 0.00 58 1013.1
20260504030903 51 239 1.0 5.0 0.00 0.00 0.00 59 1013.1
20260504030003 50 232 1.0 3.0 0.00 0.00 0.00 61 1013.3
20260504025403 50 235 1.0 4.0 0.00 0.00 0.00 61 1013.1
20260504024503 49 221 0.0 2.0 0.00 0.00 0.00 65 1013.2
20260504023603 49 247 0.0 2.0 0.00 0.00 0.00 63 1013.3
20260504022703 49 238 0.0 2.0 0.00 0.00 0.00 64 1013.1
20260504021803 49 221 0.0 2.0 0.00 0.00 0.00 66 1013.1
20260504020903 49 226 0.0 1.0 0.00 0.00 0.00 64 1013.2
20260504020003 48 218 0.0 1.0 0.00 0.00 0.00 68 1013.1
20260504015403 48 208 0.0 1.0 0.00 0.00 0.00 68 1013.0
20260504014715 48 0 0.0 0.0 0.00 0.00 0.00 68 1013.0
20260504013603 49 0 0.0 0.0 0.00 0.00 0.00 68 1013.0
20260504012703 50 0 0.0 0.0 0.00 0.00 0.00 64 1012.8
20260504012017 50 0 0.0 0.0 0.00 0.00 0.00 63 1012.7
20260504010903 51 204 0.0 1.0 0.00 0.00 0.00 59 1012.5
20260504010003 51 233 0.0 2.0 0.00 0.00 0.00 59 1012.5
20260504005403 52 247 0.0 1.0 0.00 0.00 0.00 59 1012.4
20260504004503 52 227 1.0 2.0 0.00 0.00 0.00 58 1012.3
20260504003603 53 211 0.0 2.0 0.00 0.00 0.00 54 1012.1
20260504002703 54 240 0.0 2.0 0.00 0.00 0.00 52 1012.0
20260504001803 55 256 0.0 1.0 0.00 0.00 0.00 49 1011.9
20260504000903 56 248 0.0 3.0 0.00 0.00 0.00 46 1011.8
20260504000003 57 236 1.0 3.0 0.00 0.00 0.00 44 1011.6
20260503235403 57 225 1.0 5.0 0.00 0.00 0.00 44 1011.6
20260503234503 57 231 1.0 4.0 0.00 0.00 0.00 44 1011.7
20260503233813 58 234 1.0 4.0 0.00 0.00 0.00 43 1011.4
20260503232703 58 229 2.0 6.0 0.00 0.00 0.00 42 1011.4
20260503231803 59 243 2.0 6.0 0.00 0.00 0.00 42 1011.4
20260503230903 59 228 2.0 6.0 0.00 0.00 0.00 41 1011.3
20260503230003 60 246 2.0 11.0 0.00 0.00 0.00 39 1011.2
20260503225403 61 237 2.0 6.0 0.00 0.00 0.00 40 1011.3
20260503224503 62 232 2.0 9.0 0.00 0.00 0.00 39 1011.1
20260503223603 61 233 3.0 9.0 0.00 0.00 0.00 38 1011.1
20260503222703 62 247 2.0 14.0 0.00 0.00 0.00 37 1011.1
20260503221803 63 238 2.0 8.0 0.00 0.00 0.00 38 1011.1
20260503220903 64 237 3.0 9.0 0.00 0.00 0.00 38 1011.0
20260503220213 63 251 3.0 9.0 0.00 0.00 0.00 37 1011.1
20260503215403 65 250 3.0 7.0 0.00 0.00 0.00 38 1011.2
20260503214503 66 231 2.0 12.0 0.00 0.00 0.00 35 1011.1
20260503213603 65 351 2.0 8.0 0.00 0.00 0.00 36 1011.2
20260503212917 66 329 3.0 8.0 0.00 0.00 0.00 36 1011.1
20260503211803 66 267 3.0 14.0 0.00 0.00 0.00 35 1011.1
20260503211117 66 328 2.0 8.0 0.00 0.00 0.00 35 1010.9
20260503210003 64 331 3.0 13.0 0.00 0.00 0.00 37 1011.0